Location: Bacharowice
(49.9333°N, 19.5833°E)
Time: 02:27:45
(UTC+00:00)

Cosmos 1538 Rocket - Pass Details

Date: 11 May 2021
Orbit: 752 x 792 km, 74.0° (Epoch: 22 June)

Event Time Altitude Azimuth Distance (km) Brightness Sun altitude
Rises 20:07:21 0° 334° (NNW) 3,300 9.1 -14.3°
Reaches altitude 10° 20:09:46 10° 331° (NNW) 2,364 7.9 -14.5°
Maximum altitude 20:15:06 66° 251° (WSW) 860 4.3 -15.0°
Enters shadow 20:18:45 20° 174° (S) 1,736 5.3 -15.3°
